Flag for USA

Past Weather in 34°25'14"N, 119°41'27"W, USA — Yesterday and Last 2 Weeks

Now
55 °F

Light rain. Fog.


Feels Like: 51 °F
Forecast: 58 / 48 °F
Wind: 14 mph from Southeast

Location: Santa Barbara Municipal Airport

Current Time: Apr 5, 2020 at 7:58:06 pm

Latest Report: Apr 5, 2020 at 6:53 pm


Visibility: 1 mi

Pressure: 29.81 "Hg

Humidity: 93%

Dew Point: 53 °F

Location of 34°25'14"N, 119°41'27"WLocation

Past Weather in 34°25'14"N, 119°41'27"W — Graph

°F

34°25'14"N, 119°41'27"W Temperature Yesterday

Maximum temperature yesterday: 64 °F (at 5:53 pm)
Minimum temperature yesterday: 44 °F (at 4:53 am)
Average temperature yesterday: 55 °F

High & Low Weather Summary for the Past Weeks

 TemperatureHumidityPressure
High67 °F (Mar 27, 2:53 pm)97% (Mar 22, 8:53 pm)30.25 "Hg (Mar 22, 8:53 pm)
Low41 °F (Mar 26, 5:53 am)31% (Mar 27, 2:53 pm)29.80 "Hg (Apr 1, 5:53 pm)
Average55 °F72%30.02 "Hg
* Reported Mar 21 6:53 pm — Apr 5 6:15 pm, 34°25'14"N, 119°41'27"W. Weather by CustomWeather, © 2020

Note: Actual official high and low records may vary slightly from our data, if they occured in-between our weather recording intervals... More about our weather records

34°25'14"N, 119°41'27"W Weather History for the Previous 24 Hours

Scroll right to see more
 ConditionsComfort  
Time TempWeatherWind HumidityBarometerVisibility
6:15 pm
Sun, Apr 5
54 °FHeavy rain. Fog.14 mph93%29.81 "Hg1 mi
5:53 pm55 °FLight rain. Fog.15 mph90%29.81 "Hg5 mi
4:53 pm56 °FLight rain. Fog.12 mph87%29.82 "Hg6 mi
3:53 pm56 °FLight rain. Mostly cloudy.14 mph84%29.83 "Hg10 mi
2:53 pm56 °FLight rain. Fog.9 mph90%29.85 "Hg2 mi
2:16 pm57 °FFog.9 mph90%29.86 "Hg2 mi
1:53 pm57 °FFog.10 mph87%29.87 "Hg4 mi
12:53 pm56 °FLight rain. Fog.9 mph90%29.89 "Hg4 mi
11:53 am55 °FLight rain. Fog.7 mph90%29.90 "Hg2 mi
11:16 am55 °FFog.5 mph93%29.90 "Hg6 mi
10:53 am54 °FLight rain. Fog.8 mph97%29.90 "Hg2 mi
9:58 am55 °FLight rain. Fog.10 mph90%29.90 "Hg2 mi
8:53 am56 °FMore clouds than sun.7 mph81%29.88 "Hg10 mi
8:20 am55 °FMore clouds than sun.6 mph83%29.88 "Hg10 mi
7:53 am55 °FMore clouds than sun.7 mph83%29.88 "Hg10 mi
6:53 am54 °FMore clouds than sun.5 mph86%29.86 "Hg10 mi
5:53 am54 °FMostly cloudy.3 mph90%29.85 "Hg8 mi
4:53 am54 °FOvercast.9 mph90%29.85 "Hg10 mi
3:53 am54 °FOvercast.6 mph83%29.85 "Hg10 mi
2:53 am52 °FMostly cloudy.5 mph83%29.86 "Hg10 mi
2:05 am50 °FPassing clouds.No wind86%29.87 "Hg10 mi
1:53 am50 °FPassing clouds.3 mph86%29.87 "Hg10 mi
12:53 am51 °FPartly cloudy.No wind80%29.87 "Hg10 mi
11:53 pm
Sat, Apr 4
55 °FPassing clouds.No wind72%29.88 "Hg10 mi
10:53 pm54 °FPassing clouds.5 mph74%29.88 "Hg10 mi
9:53 pm56 °FClear.7 mph70%29.87 "Hg10 mi
8:53 pm57 °FClear.10 mph69%29.86 "Hg10 mi
7:53 pm59 °FClear.8 mph69%29.83 "Hg10 mi
Weather by CustomWeather, © 2020

See weather overview

Advertising